This is the latest recevied weather packets stored in our database for station/object KD8DNO-13. If no packets are shown the sender has not sent any weather packets the latest 10 day(s).
| Time | Temp. | Humidity | Pressure | Rain* | Wind** | Luminosity | Snow |
|---|---|---|---|---|---|---|---|
| 1788202683 | 30.56° C | 62% | 1020.9 hPa | 0 mm | - | - | - |
| 1788202383 | 31.11° C | 61% | 1020.9 hPa | 0 mm | - | - | - |
| 1788202083 | 30.56° C | 62% | 1020.9 hPa | 0 mm | - | - | - |
| 1788201783 | 30.56° C | 61% | 1020.9 hPa | 0 mm | - | - | - |
| 1788201483 | 31.67° C | 58% | 1020.9 hPa | 0 mm | - | - | - |
| 1788201183 | 31.67° C | 60% | 1020.9 hPa | 0 mm | - | - | - |
| 1788200883 | 31.11° C | 61% | 1020.9 hPa | 0 mm | - | - | - |
| 1788200583 | 30.56° C | 65% | 1021.3 hPa | 0 mm | - | - | - |
| 1788200283 | 30° C | 64% | 1021.3 hPa | 0 mm | - | - | - |
| 1788199983 | 30° C | 62% | 1021.3 hPa | 0 mm | - | - | - |
| 1788199683 | 30° C | 61% | 1021.3 hPa | 0 mm | - | - | - |
| 1788199383 | 30° C | 62% | 1021.3 hPa | 0 mm | - | - | - |
| 1788199083 | 30.56° C | 62% | 1021.3 hPa | 0 mm | - | - | - |
| 1788198783 | 30.56° C | 59% | 1021.3 hPa | 0 mm | - | - | - |
| 1788198483 | 31.11° C | 58% | 1021.3 hPa | 0 mm | - | - | - |
| 1788198183 | 30.56° C | 62% | 1021.3 hPa | 0 mm | - | - | - |
| 1788197883 | 30.56° C | 61% | 1021.3 hPa | 0 mm | - | - | - |
| 1788197583 | 30.56° C | 59% | 1021.3 hPa | 0 mm | - | - | - |
| 1788197283 | 30.56° C | 60% | 1021.3 hPa | 0 mm | - | - | - |
| 1788196983 | 30° C | 61% | 1021.3 hPa | 0 mm | - | - | - |
| 1788196683 | 30.56° C | 62% | 1021.3 hPa | 0 mm | - | - | - |
| 1788196383 | 30.56° C | 63% | 1021.3 hPa | 0 mm | - | - | - |
| 1788196083 | 30.56° C | 63% | 1021.3 hPa | 0 mm | - | - | - |
| 1788195783 | 30° C | 65% | 1021.3 hPa | 0 mm | - | - | - |
| 1788195483 | 30° C | 66% | 1021.3 hPa | 0 mm | - | - | - |
* Rain latest hour (hover to see other rain measurements)
** Current wind speed in m/s (hover to see current wind gust speed)